Flag for Belgium Weather past 2 weeks in Brussels, Belgium

Now
39 °F

Chilly.


Feels Like: 34 °F
Forecast: 36 / 41 °F
Wind: 7 mph from West

Location: Uccle

Current Time: Jan 28, 2015 at 7:36:03 PM

Latest Report: Jan 28, 2015 at 7:00 PM


Visibility: N/A

Pressure: 29.56 "Hg

Humidity: 93%

Dew point: 38 °F

Location of BrusselsLocation

Historic Weather in Brussels — Graph

°F

Brussels temperature yesterday

Maximum temperature yesterday: 44 °F (at 4:00 PM)
Minimum temperature yesterday: 35 °F (at 9:00 AM)
Average temperature yesterday: 39 °F

Past Weeks' High & Low Weather Summary

 TemperatureHumidityPressure
High49 °F (Jan 15, 1:00 PM)96% (Jan 17, 8:00 AM)30.47 "Hg (Jan 17, 8:00 AM)
Low28 °F (Jan 22, 5:00 AM)69% (Jan 21, 2:00 PM)29.38 "Hg (Jan 15, 1:00 PM)
Average37 °F88%29.99 "Hg
* Reported Jan 13 6:00 PM — Jan 28 6:00 PM, Brussels, Weather by CustomWeather, © 2014

Note: Actual official high and low records may vary slightly from our data, if they occured in-between our weather recording intervals... More about our weather records

Advertising

Brussels weather history for previous 24 hours

 ConditionsComfort  
Time TempWeatherWind HumidityBarometerVisibility
6:00 PM
Jan 28
38 °FChilly.5 mph93%29.54 "HgN/A
5:00 PM45 °FCool.12 mph92%29.47 "HgN/A
4:00 PM43 °FQuite cool.9 mph92%29.50 "HgN/A
3:00 PM43 °FQuite cool.9 mph91%29.56 "HgN/A
2:00 PM42 °FQuite cool.9 mph87%29.62 "HgN/A
1:00 PM43 °FQuite cool.12 mph83%29.67 "HgN/A
12:00 PM43 °FQuite cool.9 mph83%29.77 "HgN/A
11:00 AM42 °FQuite cool.8 mph85%29.83 "HgN/A
10:00 AM42 °FQuite cool.8 mph86%29.87 "HgN/A
9:00 AM42 °FQuite cool.9 mph89%29.91 "HgN/A
8:00 AM41 °FQuite cool.7 mph87%29.95 "HgN/A
7:00 AM41 °FQuite cool.6 mph88%30.00 "HgN/A
6:00 AM41 °FQuite cool.6 mph89%30.01 "HgN/A
5:00 AM41 °FQuite cool.6 mph89%30.06 "HgN/A
4:00 AM41 °FQuite cool.5 mph88%30.07 "HgN/A
3:00 AM41 °FQuite cool.5 mph90%30.11 "HgN/A
2:00 AM40 °FQuite cool.5 mph93%30.14 "HgN/A
1:00 AM40 °FChilly.3 mph93%30.18 "HgN/A
12:00 AM40 °FChilly.2 mph93%30.22 "HgN/A
11:00 PM
Jan 27
39 °FChilly.2 mph92%30.22 "HgN/A
10:00 PM39 °FChilly.2 mph91%30.24 "HgN/A
9:00 PM38 °FChilly.2 mph89%30.25 "HgN/A
8:00 PM38 °FChilly.2 mph89%30.26 "HgN/A
7:00 PM39 °FChilly.2 mph87%30.26 "HgN/A
Weather by CustomWeather, © 2014

See weather overviewHow to use our weather pages